This demonstration page uses our WeatherBlox Daily Observations layout. Learn more.

Hourly Observations for September 26, 2018

Temp ( °F °C ) Dew Point ( °F °C ) Humidity (%) Winds ( mph kmh ) Pressure ( in mb ) Visibility ( mi km ) Precip ( " mm )
12:15 am 00:15 Clear 42 5.8 40 4.4 91 91 Calm 30.3 1026 10 16.09344 0 0
12:35 am 00:35 Clear 42 5.6 40 4.2 91 91 WNW 3 6 30.3 1026 10 16.09344 0 0
12:55 am 00:55 Clear 42 5.8 39 4.1 89 89 NW 3 6 30.3 1026 10 16.09344 0 0
1:15 am 01:15 Clear 43 5.9 40 4.3 90 90 NNW 3 6 30.3 1026 10 16.09344 0 0
1:35 am 01:35 Clear 44 6.5 39 4 84 84 Calm 30.3 1026 10 16.09344 0 0
1:55 am 01:55 Clear 43 6 39 4 87 87 NNW 5 7 30.33 1027 10 16.09344 0 0
2:15 am 02:15 Clear 43 6.2 39 3.7 84 84 NNW 5 7 30.33 1027 10 16.09344 0 0
2:35 am 02:35 Clear 44 6.7 39 3.7 81 81 NW 5 7 30.33 1027 10 16.09344 0 0
2:55 am 02:55 Clear 44 6.5 39 3.8 83 83 NW 5 7 30.33 1027 10 16.09344 0 0
3:15 am 03:15 Clear 43 6 39 3.7 85 85 NW 5 7 30.33 1027 10 16.09344 0 0
3:35 am 03:35 Clear 43 6.1 39 3.9 86 86 NW 6 9 30.3 1026 10 16.09344 0 0
3:55 am 03:55 Clear 42 5.8 39 3.8 87 87 Calm 30.3 1026 10 16.09344 0 0
4:15 am 04:15 Clear 42 5.5 39 3.7 88 88 NW 3 6 30.3 1026 10 16.09344 0 0
4:35 am 04:35 Clear 42 5.6 39 3.8 88 88 NW 5 7 30.3 1026 10 16.09344 0 0
4:55 am 04:55 Clear 42 5.4 39 3.7 89 89 Calm 30.3 1026 10 16.09344 0 0
5:15 am 05:15 Clear 41 5.1 38 3.6 90 90 Calm 30.3 1026 10 16.09344 0 0
5:35 am 05:35 Clear 41 5.1 38 3.4 89 89 WNW 3 6 30.3 1026 10 16.09344 0 0
5:55 am 05:55 Clear 41 4.9 38 3.3 90 90 W 5 7 30.36 1028 10 16.09344 0 0
6:15 am 06:15 Clear 39 4.1 38 3.1 93 93 W 6 9 30.36 1028 10 16.09344 0 0
6:35 am 06:35 Clear 41 4.8 38 3.1 89 89 W 6 9 30.36 1028 10 16.09344 0 0
6:55 am 06:55 Clear 40 4.5 38 3.1 91 91 W 5 7 30.36 1028 10 16.09344 0 0
7:15 am 07:15 Clear 40 4.5 37 2.7 88 88 WSW 3 6 30.36 1028 10 16.09344 0 0
7:35 am 07:35 Sunny 40 4.6 38 3.1 90 90 Calm 30.39 1029 10 16.09344 0 0
7:55 am 07:55 Sunny 40 4.7 37 2.7 87 87 Calm 30.39 1029 10 16.09344 0 0
8:15 am 08:15 Sunny 40 4.6 37 3 89 89 Calm 30.39 1029 10 16.09344 0 0
8:35 am 08:35 Sunny 42 5.3 40 4.6 95 95 Calm 30.39 1029 10 16.09344 0 0
8:55 am 08:55 Sunny 47 8.3 43 6.3 87 87 Calm 30.36 1028 10 16.09344 0 0
9:15 am 09:15 Sunny 49 9.5 44 6.8 83 83 Calm 30.33 1027 10 16.09344 0 0
9:35 am 09:35 Sunny 51 10.5 44 6.8 78 78 Calm 30.33 1027 10 16.09344 0 0
9:55 am 09:55 Sunny 53 11.7 43 5.9 68 68 Calm 30.3 1026 10 16.09344 0 0
10:15 am 10:15 Sunny 56 13.5 38 3.4 51 51 Calm 30.3 1026 10 16.09344 0 0
10:35 am 10:35 Sunny 57 14.1 38 3.2 48 48 Calm 30.27 1025 10 16.09344 0 0
10:55 am 10:55 Sunny 59 15.2 37 2.6 43 43 SSW 3 6 30.3 1026 10 16.09344 0 0
11:15 am 11:15 Sunny 60 15.8 35 1.7 39 39 SW 5 7 30.27 1025 10 16.09344 0 0
11:35 am 11:35 Sunny 62 16.5 37 2.9 40 40 SSW 8 13 30.27 1025 10 16.09344 0 0
11:55 am 11:55 Sunny 63 17 37 3 39 39 SW 8 13 30.27 1025 10 16.09344 0 0
12:15 pm 12:15 Sunny 63 17.3 37 2.7 38 38 SSW 12 19 30.24 1024 10 16.09344 0 0
12:35 pm 12:35 Sunny 64 17.7 38 3.2 38 38 SW 13 20 30.24 1024 10 16.09344 0 0
12:55 pm 12:55 Sunny 65 18.2 38 3.5 38 38 SW 13 20 30.24 1024 10 16.09344 0 0
1:15 pm 13:15 Sunny 66 18.8 39 3.7 37 37 SSW 9 15 30.18 1022 10 16.09344 0 0
1:35 pm 13:35 Sunny 66 18.7 39 3.8 37 37 SSW 8 13 30.18 1022 10 16.09344 0 0
1:55 pm 13:55 Sunny 67 19.5 38 3.5 35 35 SSW 10 17 30.15 1021 10 16.09344 0 0
2:15 pm 14:15 Sunny 68 20.2 39 3.8 34 34 SW 8 13 30.15 1021 10 16.09344 0 0
2:35 pm 14:35 Sunny 68 20.2 39 4.1 35 35 SW 13 20 30.12 1020 10 16.09344 0 0
2:55 pm 14:55 Sunny 69 20.5 40 4.3 35 35 SSW 9 15 30.09 1019 10 16.09344 0 0
3:15 pm 15:15 Sunny 69 20.7 40 4.7 35 35 SSW 12 19 30.09 1019 10 16.09344 0 0
3:35 pm 15:35 Sunny 69 20.7 40 4.7 35 35 SSW 14 22 30.09 1019 10 16.09344 0 0
3:55 pm 15:55 Sunny 69 20.8 40 4.6 35 35 SSW 15 24 30.03 1017 10 16.09344 0 0
4:15 pm 16:15 Sunny 70 21 40 4.4 34 34 SSW 13 20 30.03 1017 10 16.09344 0 0
4:35 pm 16:35 Sunny 70 21.1 41 4.9 35 35 SW 12 19 30.03 1017 10 16.09344 0 0
4:55 pm 16:55 Sunny 70 21 41 4.9 35 35 SW 14 22 30.03 1017 10 16.09344 0 0
5:15 pm 17:15 Sunny 70 21 40 4.7 35 35 SSW 14 22 30.03 1017 10 16.09344 0 0
5:35 pm 17:35 Sunny 70 21 41 5.1 35 35 SSW 14 22 30.03 1017 10 16.09344 0 0
5:55 pm 17:55 Sunny 70 20.9 41 4.8 35 35 SSW 12 19 30 1016 10 16.09344 0 0
6:15 pm 18:15 Sunny 69 20.8 41 4.8 35 35 SSW 13 20 30 1016 10 16.09344 0 0
6:35 pm 18:35 Sunny 69 20.3 41 4.9 37 37 SSW 12 19 30.03 1017 10 16.09344 0 0
6:55 pm 18:55 Sunny 68 19.8 40 4.7 37 37 SSW 9 15 30.03 1017 10 16.09344 0 0
7:15 pm 19:15 Sunny 65 18.6 40 4.6 40 40 SSW 8 13 30.03 1017 10 16.09344 0 0
7:35 pm 19:35 Clear 64 17.5 40 4.5 42 42 S 8 13 30.03 1017 10 16.09344 0 0
7:55 pm 19:55 Clear 61 16.3 41 5 47 47 S 6 9 30.06 1018 10 16.09344 0 0
8:15 pm 20:15 Clear 58 14.7 42 5.3 54 54 S 7 11 30.06 1018 10 16.09344 0 0
8:35 pm 20:35 Clear 56 13.4 42 5.6 59 59 S 7 11 30.09 1019 10 16.09344 0 0
8:55 pm 20:55 Clear 57 13.8 42 5.8 59 59 S 8 13 30.06 1018 10 16.09344 0 0
9:15 pm 21:15 Clear 57 13.7 43 5.9 60 60 S 8 13 30.06 1018 10 16.09344 0 0
9:35 pm 21:35 Clear 56 13.4 43 6.3 62 62 S 7 11 30.09 1019 10 16.09344 0 0
9:55 pm 21:55 Clear 56 13.1 44 6.6 65 65 S 8 13 30.09 1019 10 16.09344 0 0
10:15 pm 22:15 Clear 56 13.5 45 7 65 65 S 10 17 30.06 1018 10 16.09344 0 0
10:35 pm 22:35 Clear 56 13.5 45 7.1 65 65 S 9 15 30.03 1017 10 16.09344 0 0
10:55 pm 22:55 Clear 57 13.8 44 6.8 63 63 S 9 15 30.03 1017 10 16.09344 0 0
11:15 pm 23:15 Clear 58 14.3 43 6.1 58 58 S 12 19 30.03 1017 10 16.09344 0 0
11:35 pm 23:35 Clear 57 14 43 5.9 58 58 S 10 17 30.03 1017 10 16.09344 0 0
11:55 pm 23:55 Clear 56 13.5 43 6 61 61 S 10 17 30.03 1017 10 16.09344 0 0

Powered by AerisWeather